Location: Babice
(50.3480°N, 22.9363°E)
Time: 11:34:14
(UTC+00:00)

Cosmos 1190 Rocket - Pass Details

Date: 14 July 2020
Orbit: 756 x 781 km, 74.1° (Epoch: 07 August)

Event Time Altitude Azimuth Distance (km) Brightness Sun altitude
Exits shadow 00:26:21 20° 193° (SSW) 1,712 5.2 -13.9°
Maximum altitude 00:30:00 76° 111° (ESE) 795 4.1 -13.6°
Drops below altitude 10° 00:35:16 10° 27° (NNE) 2,322 8.0 -13.2°
Sets 00:37:40 0° 26° (NNE) 3,258 9.3 -13.0°
